Theta_e
303 328 338 340 339 338 337 336 336 337 338 336 336 336 335 337 339 341 343 344 344 342 339 336 334 333 332 329 327 326 325 322 323 322 323 323 323 326 328 324 320 320 321
308 334 335 336 336 336 336 335 337 338 339 338 337 337 340 340 343 344 343 344 342 340 337 334 332 331 327 326 326 326 323 321 320 320 318 317 321 324 324 322 319 318 318
309 333 335 334 336 335 335 335 337 337 340 341 341 343 343 342 343 343 342 342 342 339 336 334 330 328 327 325 325 324 322 319 324 323 322 317 315 319 322 320 316 317 317
312 330 335 335 335 336 337 337 337 337 338 344 341 340 339 338 341 342 340 340 338 336 335 333 330 327 325 325 326 328 325 324 322 322 319 319 319 316 313 315 313 317 316
314 327 332 336 336 337 337 336 335 334 338 345 343 341 338 340 342 338 336 334 335 335 332 330 327 325 325 324 327 325 323 322 319 318 315 313 312 312 310 308 310 315 316
306 324 331 334 336 337 337 336 332 334 338 343 342 341 340 339 335 333 333 332 331 329 329 328 325 325 326 326 324 322 320 318 317 315 315 314 313 312 311 309 310 309 312
299 317 325 331 333 334 334 334 332 330 334 339 340 338 341 339 334 334 332 329 327 327 326 326 325 324 323 322 321 319 318 317 316 316 316 315 314 314 312 310 308 307 310
297 310 320 327 331 333 334 334 332 328 332 338 337 339 340 338 334 334 332 329 328 327 326 323 321 320 320 319 319 318 317 317 315 314 313 314 313 313 312 310 308 305 306
298 298 319 324 329 332 333 333 331 330 330 337 339 337 335 332 330 330 330 328 326 324 321 320 318 316 315 314 313 311 311 311 310 310 310 310 310 310 309 309 308 306 302
300 298 312 322 327 331 333 333 332 332 330 337 338 332 329 329 329 329 327 324 321 320 317 314 312 310 309 308 307 306 307 306 305 305 306 307 308 309 309 309 309 308 306
302 301 302 323 325 328 328 328 332 336 333 334 331 329 329 329 329 325 321 317 316 313 310 308 307 305 304 305 305 305 304 303 303 304 304 306 308 306 305 305 305 305 305
303 302 300 323 322 324 324 328 335 336 333 330 329 327 326 325 321 316 315 313 307 307 305 304 303 302 301 301 301 301 301 302 303 304 305 306 305 303 302 302 302 301 302
305 301 315 322 321 322 325 331 335 329 327 327 325 323 321 317 313 310 308 306 303 302 301 301 300 299 300 300 300 300 301 303 303 305 305 303 303 301 299 300 299 299 301
308 316 320 320 321 325 329 332 326 326 325 324 322 319 315 312 308 305 304 301 300 298 297 297 297 298 299 299 299 300 301 301 302 304 305 303 301 299 298 298 298 299 298
317 320 320 320 326 329 327 325 324 323 323 319 316 311 309 306 304 301 300 299 298 297 296 295 295 296 297 299 297 298 298 298 299 300 303 302 301 300 299 298 298 298 296
322 322 322 327 325 322 321 321 320 320 317 314 311 309 306 303 301 300 298 297 295 293 293 292 292 293 294 296 297 295 295 296 297 297 298 300 299 298 298 298 299 298 296
323 323 322 321 319 319 319 317 315 314 313 310 309 306 304 302 300 298 296 294 292 291 290 290 291 291 293 294 295 294 294 295 296 297 297 297 296 296 296 296 296 294 294
318 318 317 317 317 316 314 313 313 311 309 308 307 306 304 301 299 296 294 292 290 288 288 288 289 289 292 293 293 292 292 292 293 294 295 294 294 295 295 293 291 290 290
316 315 315 312 312 311 311 310 309 310 307 306 306 305 303 300 298 295 292 291 288 288 288 288 287 287 288 292 292 290 291 291 291 292 295 294 292 293 292 290 288 288 288
312 309 309 308 308 308 309 308 307 307 306 305 304 303 302 300 297 295 293 290 289 288 287 286 286 289 287 292 292 290 290 290 289 291 291 293 292 291 291 289 287 285 286
307 308 308 305 305 307 305 303 302 300 301 300 300 300 300 298 297 295 293 290 288 287 286 285 285 286 290 291 292 291 290 288 289 289 288 289 290 289 289 289 287 285 287
305 305 304 303 304 305 302 297 294 297 297 295 294 296 298 298 297 294 290 289 286 285 285 285 285 286 286 292 291 292 291 290 289 288 289 289 288 288 288 287 287 286 285
303 304 302 301 301 300 298 293 292 292 291 290 290 290 292 294 294 291 287 285 285 285 284 285 285 285 286 288 290 291 291 292 290 291 290 289 287 286 285 286 285 284 284
300 301 300 296 293 293 292 290 290 290 288 287 287 288 288 287 288 287 286 285 284 284 285 285 285 286 287 288 288 288 289 289 289 288 288 287 286 284 283 283 283 282 283
298 297 294 292 290 290 289 289 289 288 286 286 286 286 286 285 285 285 285 284 284 285 284 284 286 287 286 288 289 288 288 288 288 287 286 284 283 282 281 281 281 281 281
296 295 293 292 291 290 288 288 288 287 286 285 285 285 285 286 286 285 285 289 288 288 287 287 287 287 288 289 289 289 288 288 287 285 283 282 282 280 280 279 279 280 280
Wind_Speed
6 7 9 12 15 12 13 14 13 12 10 8 8 5 7 4 3 3 6 5 6 6 6 4 4 3 4 3 2 2 3 3 3 2 2 1 2 4 4 5 5 6 6
5 7 9 12 14 18 16 14 14 13 12 8 6 4 5 3 2 4 5 6 6 7 5 6 5 5 4 4 2 3 2 2 4 3 2 3 2 2 3 4 5 5 4
11 10 11 14 13 15 17 17 18 16 12 11 6 4 6 5 3 3 5 5 7 7 7 6 5 5 4 4 3 2 3 3 4 4 2 1 1 3 1 2 2 5 4
9 11 15 12 15 16 15 15 13 14 10 13 11 11 9 7 3 4 4 5 8 8 8 5 6 6 5 5 3 2 3 3 3 2 3 4 1 1 4 2 2 5 4
12 15 16 17 17 16 16 14 12 12 12 13 13 9 6 5 6 7 9 10 8 6 8 6 7 7 5 4 4 4 5 3 3 1 1 2 3 2 0 4 4 4 4
9 14 17 16 15 13 12 12 12 11 12 13 12 12 13 11 9 9 8 8 6 5 7 7 7 6 6 6 5 5 6 5 5 3 3 2 1 2 1 3 4 6 3
6 9 14 15 14 13 14 12 13 11 12 12 10 8 12 13 13 12 10 10 7 5 6 8 8 6 6 6 5 5 5 4 4 3 2 1 1 0 1 2 4 4 6
6 9 12 15 17 17 16 15 15 12 13 12 9 10 12 8 9 9 8 7 6 6 8 9 9 8 7 7 6 5 5 6 5 7 4 3 3 1 1 2 3 6 3
7 10 11 14 15 16 19 19 17 12 13 13 11 11 10 10 10 11 9 8 8 7 8 10 11 10 10 9 8 7 7 6 6 6 5 3 3 3 3 3 3 4 8
8 7 10 15 15 16 16 14 14 14 15 13 11 11 13 13 14 13 12 10 9 9 11 12 12 11 10 9 8 6 6 7 4 4 6 5 4 5 4 4 4 3 5
10 7 8 11 13 13 13 12 15 16 15 13 12 15 13 13 12 14 16 10 10 11 13 11 12 11 11 8 8 6 6 6 5 7 8 7 6 5 6 6 5 5 6
10 7 7 10 12 13 13 15 15 15 14 15 14 14 14 14 15 14 15 11 13 12 11 12 13 11 10 8 8 7 7 8 8 8 8 8 6 8 7 6 7 6 8
10 7 8 13 15 15 15 16 15 16 17 17 16 16 15 15 16 15 14 14 14 13 12 12 11 11 9 8 8 8 8 7 7 7 9 8 8 7 7 7 8 7 7
8 7 11 13 15 17 18 18 16 18 18 18 17 17 16 16 14 14 15 15 14 14 12 11 11 11 10 10 8 8 7 7 7 7 7 7 7 7 8 7 8 8 8
8 14 15 14 16 18 17 17 17 19 19 19 18 17 17 16 15 15 16 16 15 12 12 12 11 10 10 8 8 7 7 7 8 8 6 6 9 12 9 6 8 8 7
12 16 18 17 17 20 18 19 19 19 20 20 19 18 18 17 16 16 17 16 13 12 12 12 12 11 8 14 13 7 6 7 8 8 8 6 9 12 15 14 14 12 10
16 18 19 18 18 19 21 20 19 19 20 20 20 18 18 18 16 15 16 14 13 12 13 12 11 11 9 14 11 11 5 7 7 6 6 7 7 9 9 11 13 14 16
17 20 19 17 18 18 21 19 19 21 21 20 20 19 18 18 15 16 16 14 11 12 10 10 10 9 9 14 11 11 7 7 6 7 8 8 9 11 10 9 11 12 12
18 20 20 21 19 19 20 21 21 21 21 20 18 18 18 18 16 16 14 11 12 11 11 9 9 9 8 12 12 8 6 8 9 9 10 9 11 13 12 11 12 12 12
19 23 23 22 21 18 19 22 21 20 20 18 17 17 17 17 17 15 13 11 11 11 9 10 7 12 8 13 12 9 6 8 6 9 11 17 13 15 15 11 12 13 14
25 25 23 22 21 20 21 23 21 20 16 17 18 17 16 17 16 15 12 11 11 10 9 9 7 9 10 10 13 11 7 5 7 8 8 9 16 16 16 14 12 12 13
26 27 23 21 18 19 21 23 22 16 17 17 18 17 15 12 12 15 11 10 10 10 8 8 8 7 7 12 11 12 12 10 8 8 7 8 15 15 16 13 17 17 14
22 23 24 24 19 17 20 23 17 17 18 18 17 15 15 13 11 12 11 9 8 7 7 7 6 6 5 5 13 15 13 15 9 7 10 13 14 15 11 17 19 16 10
21 21 23 24 21 18 19 20 18 17 18 17 15 13 14 12 10 8 7 8 7 6 7 6 6 5 5 6 6 6 7 11 9 10 9 10 12 14 12 12 12 10 10
20 14 24 22 20 19 18 16 16 17 17 15 14 13 11 12 10 9 7 7 5 5 6 4 4 6 5 5 5 8 6 6 8 7 7 8 9 10 10 10 10 10 10
14 21 22 22 19 19 17 15 14 15 16 15 11 10 9 9 9 9 8 12 10 11 11 7 6 3 3 6 13 13 13 12 10 7 9 9 10 10 10 10 10 10 13
Wind_Direction
250 199 166 165 162 163 164 173 168 167 160 162 163 171 181 147 177 150 154 149 133 144 142 114 111 113 103 127 138 97 60 40 18 4 357 21 48 87 85 79 47 41 29
227 163 153 157 172 172 175 173 178 174 177 173 167 148 140 134 146 134 124 143 153 116 109 135 123 110 101 117 100 75 113 72 23 69 32 358 342 44 59 89 49 26 13
184 183 175 173 172 178 181 181 181 178 175 163 142 114 95 95 119 130 142 166 138 120 114 124 119 112 131 117 90 96 90 107 45 48 101 357 298 310 50 67 46 12 20
169 185 187 181 180 192 188 187 178 175 167 160 168 167 171 158 148 124 129 111 106 111 119 136 124 129 113 100 104 115 97 104 91 43 30 49 10 323 322 352 331 347 356
170 179 191 195 195 190 190 183 164 167 170 171 170 163 133 123 125 120 115 107 96 124 112 128 121 110 105 114 117 93 76 72 102 92 60 50 43 59 47 295 318 322 313
193 187 194 197 200 195 186 174 160 165 171 171 164 163 145 144 130 140 125 111 112 107 114 117 106 103 111 107 103 90 84 88 94 103 90 81 41 355 334 285 300 307 308
225 194 188 190 197 192 184 167 157 160 163 164 163 140 146 150 152 143 137 136 123 130 120 110 100 99 101 97 92 90 89 81 85 73 82 82 88 151 278 272 300 308 323
235 210 198 193 189 187 184 174 165 158 165 162 143 126 136 138 143 125 123 119 119 119 117 107 105 96 87 85 81 82 83 80 75 67 56 72 58 28 334 299 308 316 290
258 216 199 194 189 187 187 178 169 158 160 158 136 126 122 118 109 112 117 109 101 114 104 99 91 79 76 76 77 69 68 68 61 59 52 43 19 3 341 312 303 296 300
263 236 202 190 190 189 186 176 166 160 152 144 131 114 117 123 120 114 99 102 97 110 102 87 85 81 74 70 70 64 53 60 40 38 39 32 5 3 7 3 349 305 303
247 250 202 188 184 173 163 155 153 147 144 129 116 114 121 122 124 110 108 107 120 103 92 95 89 79 72 63 68 65 52 61 41 32 35 26 25 24 13 6 351 334 325
237 232 200 160 151 153 148 152 153 141 133 120 122 118 115 113 109 109 105 117 93 83 94 89 82 80 73 61 62 63 50 46 37 29 42 43 35 26 9 352 340 323 314
245 218 155 155 150 150 149 148 146 125 121 124 121 115 114 114 108 108 111 106 105 97 87 85 81 74 67 65 58 55 53 53 46 45 60 48 27 14 354 340 335 334 328
239 156 146 149 150 151 153 142 126 125 119 122 117 116 116 110 112 112 110 101 95 93 87 78 77 73 67 55 54 58 56 50 42 45 55 43 25 11 351 341 340 339 334
201 151 143 148 153 142 129 128 124 119 126 118 112 111 107 105 106 105 100 93 88 87 85 85 73 65 58 48 53 51 48 45 43 40 37 37 24 20 0 345 343 343 342
183 149 145 145 136 126 127 125 123 124 120 116 116 114 109 107 104 99 94 91 89 83 82 73 71 64 58 49 54 64 62 57 54 33 14 13 18 3 352 1 3 6 353
154 138 130 128 124 126 126 120 123 120 116 115 112 110 110 106 102 100 95 92 87 87 77 72 71 63 53 44 48 60 62 60 48 34 25 15 4 1 359 359 4 4 359
136 125 119 117 117 117 111 118 124 115 115 112 111 112 109 105 104 99 93 91 88 79 79 73 67 64 48 42 47 58 57 55 43 35 28 30 20 14 13 5 1 359 352
126 120 114 113 112 113 116 119 113 114 110 110 110 112 114 109 105 97 98 97 92 82 76 74 69 65 47 42 48 55 59 62 51 44 42 43 34 17 19 18 6 354 351
124 113 109 106 106 110 116 109 106 104 103 108 108 105 104 103 103 104 100 95 88 87 80 72 58 64 60 45 53 57 63 61 53 47 36 30 28 22 23 22 8 359 349
111 105 105 104 105 109 106 100 97 92 100 99 96 94 96 101 104 105 102 97 90 86 77 74 56 54 46 44 48 56 68 64 59 49 34 28 23 23 18 18 13 360 341
109 103 103 94 96 102 105 97 91 100 98 94 91 90 94 99 103 104 100 92 93 89 84 80 67 49 41 47 49 60 68 64 65 47 34 26 20 17 11 12 3 359 355
97 102 102 100 94 100 99 98 99 98 94 88 87 89 91 94 99 105 102 92 90 90 83 80 73 59 41 50 49 54 59 63 64 51 38 21 16 12 10 8 7 5 2
88 94 104 95 92 88 90 96 101 97 95 94 93 94 93 93 89 86 90 97 95 91 85 83 80 68 55 50 41 53 53 57 59 42 33 22 22 22 11 6 7 5 3
77 102 91 91 92 90 86 87 94 99 96 94 93 91 91 93 90 77 87 95 71 93 106 91 92 86 63 33 75 76 59 61 55 51 35 25 20 14 11 5 3 359 0
101 86 92 93 92 90 89 89 91 97 100 95 90 94 98 98 98 99 87 62 88 94 89 93 97 66 75 84 74 72 62 53 41 51 43 27 23 17 9 2 356 358 359